TimeEST,TemperatureF,Dew PointF,Humidity,Sea Level PressureIn,VisibilityMPH,Wind Direction,Wind SpeedMPH,Gust SpeedMPH,PrecipitationIn,Events,Conditions,WindDirDegrees,DateUTC
12:15 AM,45.5,33.3,62,30.12,10.0,Calm,Calm,-,N/A,,Overcast,0,2012-11-20 05:15:00
12:35 AM,43.7,33.8,68,30.12,10.0,Calm,Calm,-,N/A,,Overcast,0,2012-11-20 05:35:00
12:55 AM,43.9,33.8,68,30.12,10.0,Calm,Calm,-,N/A,,Overcast,0,2012-11-20 05:55:00
1:15 AM,42.8,34.0,71,30.12,10.0,Calm,Calm,-,N/A,,Overcast,0,2012-11-20 06:15:00
1:36 AM,41.2,34.5,77,30.12,10.0,Calm,Calm,-,N/A,,Mostly Cloudy,0,2012-11-20 06:36:00
1:55 AM,40.3,34.7,80,30.11,10.0,Calm,Calm,-,N/A,,Overcast,0,2012-11-20 06:55:00
2:15 AM,43.9,34.2,69,30.11,10.0,SSE,3.5,-,N/A,,Overcast,150,2012-11-20 07:15:00
2:36 AM,41.2,34.3,77,30.11,10.0,Calm,Calm,-,N/A,,Overcast,0,2012-11-20 07:36:00
2:55 AM,41.4,35.1,78,30.11,10.0,Calm,Calm,-,N/A,,Overcast,0,2012-11-20 07:55:00
3:15 AM,41.5,34.9,77,30.11,10.0,Calm,Calm,-,N/A,,Overcast,0,2012-11-20 08:15:00
3:36 AM,42.6,34.7,74,30.10,10.0,SSE,4.6,-,N/A,,Overcast,160,2012-11-20 08:36:00
3:55 AM,43.7,34.5,70,30.10,10.0,SSE,3.5,-,N/A,,Overcast,160,2012-11-20 08:55:00
4:15 AM,43.2,35.1,73,30.10,10.0,Calm,Calm,-,N/A,,Overcast,0,2012-11-20 09:15:00
4:35 AM,43.3,35.6,74,30.09,10.0,Calm,Calm,-,N/A,,Overcast,0,2012-11-20 09:35:00
4:55 AM,42.3,35.8,78,30.09,10.0,Calm,Calm,-,N/A,,Overcast,0,2012-11-20 09:55:00
5:15 AM,44.1,36.5,75,30.09,10.0,Calm,Calm,-,N/A,,Overcast,0,2012-11-20 10:15:00
5:35 AM,43.0,37.2,80,30.09,10.0,Calm,Calm,-,N/A,Rain,Light Rain,0,2012-11-20 10:35:00
5:55 AM,43.5,37.9,81,30.09,10.0,Calm,Calm,-,N/A,,Overcast,0,2012-11-20 10:55:00
6:15 AM,43.2,37.9,82,30.08,10.0,Calm,Calm,-,N/A,,Overcast,0,2012-11-20 11:15:00
6:35 AM,42.1,38.7,88,30.09,10.0,Calm,Calm,-,N/A,,Overcast,0,2012-11-20 11:35:00
6:55 AM,42.3,39.2,89,30.09,7.0,Calm,Calm,-,N/A,,Overcast,0,2012-11-20 11:55:00
7:16 AM,42.1,39.6,91,30.09,7.0,Calm,Calm,-,N/A,,Overcast,0,2012-11-20 12:16:00
7:35 AM,43.5,39.2,85,30.10,10.0,SSE,4.6,-,N/A,,Overcast,150,2012-11-20 12:35:00
7:55 AM,43.7,40.1,87,30.10,10.0,Calm,Calm,-,N/A,,Overcast,0,2012-11-20 12:55:00
8:16 AM,43.9,40.5,88,30.10,7.0,South,3.5,-,N/A,,Overcast,170,2012-11-20 13:16:00
8:35 AM,43.9,40.8,89,30.10,7.0,Calm,Calm,-,N/A,,Overcast,0,2012-11-20 13:35:00
8:55 AM,44.1,41.0,89,30.10,7.0,Calm,Calm,-,N/A,,Overcast,0,2012-11-20 13:55:00
9:15 AM,44.6,41.0,87,30.10,7.0,SSW,3.5,-,N/A,,Overcast,210,2012-11-20 14:15:00
9:35 AM,45.0,41.0,86,30.10,10.0,Calm,Calm,-,N/A,,Overcast,0,2012-11-20 14:35:00
9:55 AM,45.5,41.0,84,30.10,7.0,Calm,Calm,-,N/A,,Overcast,0,2012-11-20 14:55:00
10:15 AM,45.9,41.2,84,30.09,10.0,Calm,Calm,-,N/A,,Overcast,0,2012-11-20 15:15:00
10:35 AM,46.6,41.0,81,30.10,10.0,South,3.5,-,N/A,,Overcast,170,2012-11-20 15:35:00
10:55 AM,47.3,41.2,79,30.10,10.0,Calm,Calm,-,N/A,,Overcast,0,2012-11-20 15:55:00
11:15 AM,48.0,41.0,77,30.09,10.0,SSE,3.5,-,N/A,,Overcast,160,2012-11-20 16:15:00
11:36 AM,48.4,40.8,75,30.09,10.0,Calm,Calm,-,N/A,,Overcast,0,2012-11-20 16:36:00
11:55 AM,48.6,40.6,74,30.09,10.0,Calm,Calm,-,N/A,,Overcast,0,2012-11-20 16:55:00
12:16 PM,48.9,41.0,74,30.08,10.0,Calm,Calm,-,N/A,,Overcast,0,2012-11-20 17:16:00
12:35 PM,49.1,41.2,74,30.08,10.0,Calm,Calm,-,N/A,,Overcast,0,2012-11-20 17:35:00
12:55 PM,50.2,41.9,73,30.08,10.0,Calm,Calm,-,N/A,,Overcast,0,2012-11-20 17:55:00
1:15 PM,51.3,41.7,70,30.08,10.0,Calm,Calm,-,N/A,,Overcast,0,2012-11-20 18:15:00
1:35 PM,51.3,41.9,70,30.08,10.0,Calm,Calm,-,N/A,,Overcast,0,2012-11-20 18:35:00
1:55 PM,51.8,41.9,69,30.08,10.0,Calm,Calm,-,N/A,,Overcast,0,2012-11-20 18:55:00
2:15 PM,51.6,42.3,70,30.09,10.0,North,3.5,-,N/A,,Overcast,360,2012-11-20 19:15:00
2:35 PM,50.9,42.1,72,30.09,10.0,Calm,Calm,-,N/A,,Overcast,0,2012-11-20 19:35:00
2:55 PM,50.2,41.9,73,30.09,10.0,North,5.8,-,N/A,,Overcast,350,2012-11-20 19:55:00
3:16 PM,49.8,41.9,74,30.09,10.0,NNW,3.5,-,N/A,,Overcast,340,2012-11-20 20:16:00
3:35 PM,49.6,42.1,75,30.09,10.0,Calm,Calm,-,N/A,,Overcast,0,2012-11-20 20:35:00
3:55 PM,49.3,42.4,77,30.09,10.0,Calm,Calm,-,N/A,,Overcast,0,2012-11-20 20:55:00
4:16 PM,49.1,42.8,79,30.10,7.0,North,3.5,-,N/A,,Overcast,360,2012-11-20 21:16:00
4:35 PM,48.2,43.0,82,30.10,7.0,NNW,3.5,-,N/A,,Overcast,340,2012-11-20 21:35:00
4:55 PM,47.7,43.2,84,30.10,5.0,Calm,Calm,-,N/A,,Haze,0,2012-11-20 21:55:00
5:15 PM,46.8,42.8,86,30.10,5.0,Calm,Calm,-,N/A,,Overcast,0,2012-11-20 22:15:00
5:35 PM,45.7,43.0,90,30.11,5.0,Calm,Calm,-,N/A,,Overcast,0,2012-11-20 22:35:00
5:55 PM,45.3,42.8,91,30.11,5.0,Calm,Calm,-,N/A,,Overcast,0,2012-11-20 22:55:00
6:15 PM,45.5,43.2,92,30.11,5.0,Calm,Calm,-,N/A,,Overcast,0,2012-11-20 23:15:00
6:35 PM,44.4,42.6,93,30.11,4.0,Calm,Calm,-,N/A,,Mostly Cloudy,0,2012-11-20 23:35:00
6:55 PM,43.7,42.4,95,30.12,4.0,Calm,Calm,-,N/A,,Mostly Cloudy,0,2012-11-20 23:55:00
7:15 PM,42.1,41.0,96,30.13,2.0,Calm,Calm,-,N/A,,Overcast,0,2012-11-21 00:15:00
7:35 PM,40.8,39.6,95,30.13,1.8,Calm,Calm,-,N/A,,Overcast,0,2012-11-21 00:35:00
7:56 PM,42.4,41.2,95,30.13,0.5,Calm,Calm,-,N/A,Fog,Fog,0,2012-11-21 00:56:00
8:15 PM,43.5,42.4,96,30.14,2.0,Calm,Calm,-,N/A,,Overcast,0,2012-11-21 01:15:00
8:35 PM,41.7,40.6,96,30.13,0.5,Calm,Calm,-,N/A,Fog,Fog,0,2012-11-21 01:35:00
8:56 PM,38.8,37.8,96,30.13,0.2,Calm,Calm,-,N/A,Fog,Fog,0,2012-11-21 01:56:00
9:15 PM,38.1,37.2,97,30.14,0.5,Calm,Calm,-,N/A,Fog,Fog,0,2012-11-21 02:15:00
9:35 PM,39.0,38.1,97,30.14,2.0,Calm,Calm,-,N/A,,Overcast,0,2012-11-21 02:35:00
9:56 PM,39.6,38.8,97,30.14,3.0,Calm,Calm,-,N/A,,Overcast,0,2012-11-21 02:56:00
10:15 PM,41.0,40.1,97,30.14,3.0,Calm,Calm,-,N/A,,Overcast,0,2012-11-21 03:15:00
10:35 PM,43.2,42.4,97,30.14,2.5,SSW,3.5,-,N/A,,Overcast,200,2012-11-21 03:35:00
10:55 PM,44.1,43.3,97,30.14,2.0,South,3.5,-,N/A,,Overcast,170,2012-11-21 03:55:00
11:15 PM,44.1,43.2,97,30.14,2.5,Calm,Calm,-,N/A,,Overcast,0,2012-11-21 04:15:00
11:35 PM,44.1,43.2,97,30.14,3.0,Calm,Calm,-,N/A,,Overcast,0,2012-11-21 04:35:00
11:55 PM,44.1,43.0,96,30.14,3.0,SSE,3.5,-,N/A,,Overcast,160,2012-11-21 04:55:00